Temperature
18 18 17 17 17 16 16 16 16 16 16 16 16 16 16 16 16 16 16 16 16 15 15 15 15 16 16 16 16 16 15 15 15 15 15 15 15 15 14 14 15 15 15
19 18 17 17 17 16 16 16 16 16 16 16 16 16 16 16 16 16 16 16 16 15 16 16 16 16 16 16 16 15 15 15 15 14 14 15 15 15 14 15 15 15 15
19 18 17 17 16 16 16 16 16 16 16 16 16 16 16 16 16 16 16 16 16 16 16 16 16 16 16 16 16 15 15 14 14 14 14 14 15 14 15 15 15 15 15
19 18 17 17 16 16 16 16 16 16 16 16 16 16 16 16 16 16 16 16 16 16 16 16 16 16 16 16 16 15 15 14 14 14 14 14 15 14 14 15 15 15 15
18 18 17 17 16 16 16 16 17 17 16 16 16 16 16 16 16 16 16 16 16 16 16 16 16 16 16 16 16 15 15 14 14 14 14 15 15 15 15 15 15 15 15
17 17 17 16 16 16 16 17 17 17 16 16 16 16 16 16 17 17 17 17 17 17 16 16 16 16 16 16 16 15 15 14 14 14 14 15 15 15 15 15 15 15 15
17 17 17 16 16 16 16 17 17 17 17 16 16 16 16 17 17 17 17 17 17 17 17 17 16 16 16 16 16 15 15 15 14 14 15 15 15 15 15 15 15 15 15
17 17 17 16 16 16 16 17 17 17 17 16 16 16 16 17 17 17 17 17 17 17 17 17 17 16 16 16 16 16 15 15 14 14 15 15 15 15 15 15 15 15 15
17 17 17 16 16 16 16 16 16 17 17 16 16 16 16 17 17 17 17 17 17 17 17 17 17 17 16 16 16 16 15 15 14 14 14 15 15 15 15 15 15 15 15
17 16 16 16 16 16 16 16 16 16 16 16 16 16 16 17 17 17 17 17 17 17 17 17 17 17 16 16 16 16 15 15 14 14 14 14 15 15 15 15 15 15 14
16 16 16 16 16 16 16 16 16 16 17 16 16 16 16 16 17 17 17 17 17 17 17 17 17 16 16 16 16 16 15 15 14 14 14 14 14 14 15 14 14 14 14
16 16 16 16 16 16 16 16 16 16 16 16 16 16 16 16 16 16 17 17 17 17 17 17 17 16 16 16 16 15 15 15 14 14 14 14 14 14 14 14 14 14 14
16 16 16 16 16 15 15 16 16 16 16 15 15 15 15 15 15 15 16 16 17 17 17 17 16 16 16 15 15 15 15 14 14 14 14 14 14 14 14 14 14 14 14
16 16 16 16 16 16 15 15 15 15 15 15 15 15 15 15 15 15 16 16 16 16 16 16 16 15 15 14 14 14 14 14 14 14 14 14 14 14 14 14 13 13 13
16 16 16 16 16 16 15 15 15 15 15 15 15 15 15 15 15 15 15 15 15 15 15 15 15 14 14 14 14 14 14 14 13 13 13 13 13 13 13 13 13 13 13
16 16 16 16 16 15 15 15 15 15 15 15 15 15 14 14 14 14 14 14 14 14 14 14 14 14 14 13 14 14 14 13 13 13 13 13 13 13 13 13 13 12 12
16 16 16 16 16 15 15 15 15 15 15 15 15 15 14 14 14 14 14 14 14 14 14 14 14 13 13 14 14 14 13 13 13 13 13 13 13 13 13 12 12 12 12
16 16 16 16 15 15 15 15 15 15 15 15 14 14 14 14 14 14 14 14 14 14 14 14 14 13 13 13 13 13 13 13 13 13 13 13 12 12 12 12 12 12 11
16 16 16 16 15 15 15 15 15 15 14 14 14 14 14 14 14 14 14 14 14 13 13 13 13 13 13 13 13 13 13 13 13 13 13 12 12 12 12 11 11 11 11
16 16 16 16 16 15 15 15 15 15 14 14 14 14 14 14 14 14 14 14 13 13 13 13 13 13 13 13 13 13 13 13 13 13 13 12 12 11 11 11 11 11 11
16 16 16 16 16 15 15 15 15 15 15 14 14 14 14 14 14 14 14 14 13 13 13 13 13 13 13 12 12 12 13 13 13 13 12 12 12 11 11 11 11 10 10
16 16 16 16 16 15 15 15 15 15 15 14 14 14 14 14 14 14 14 14 14 13 13 13 13 12 12 12 12 11 11 12 12 12 12 12 11 11 11 10 10 10 10
16 16 16 16 16 16 15 15 15 15 14 14 14 14 14 14 14 14 14 14 13 13 13 13 12 12 12 12 11 11 11 11 11 11 11 11 11 10 10 10 10 9 9
16 16 16 16 16 15 15 15 15 15 15 15 14 14 14 14 14 14 14 14 13 13 13 12 12 12 11 11 11 11 10 10 10 10 10 10 10 10 10 9 9 9 9
16 16 16 16 15 15 15 15 15 15 14 14 14 14 14 14 14 14 14 13 13 12 12 12 12 11 11 11 10 10 10 10 10 9 9 10 9 9 9 9 8 8 8
16 16 16 15 15 15 15 15 15 14 14 14 14 14 13 13 13 13 13 13 12 12 12 11 11 11 10 10 10 10 9 9 9 9 9 9 9 8 8 8 8 7 7
Wind_Speed
13 18 21 19 18 17 16 16 15 14 14 14 14 14 15 15 15 15 15 16 17 18 19 19 19 19 19 18 18 18 17 16 16 17 18 18 18 18 20 19 17 16 17
17 21 21 20 19 18 17 16 15 14 14 14 14 15 15 15 15 16 16 17 18 19 19 19 18 18 18 17 17 15 13 12 11 11 14 17 17 18 18 18 17 16 17
19 22 21 20 19 18 17 16 15 14 14 14 14 15 15 15 16 16 17 18 18 19 19 18 17 17 16 16 15 13 10 8 7 6 9 15 16 17 17 17 17 17 17
20 21 20 21 20 19 17 16 14 14 14 14 14 15 15 15 16 17 17 18 18 18 17 17 16 15 15 14 13 11 8 8 9 10 13 15 15 15 16 16 16 16 16
18 20 22 21 20 19 17 15 14 14 14 14 14 15 15 15 15 16 16 17 17 16 16 15 15 14 14 13 11 9 8 10 11 13 16 16 14 14 14 14 14 14 14
15 21 22 21 20 18 17 15 14 14 14 14 14 14 15 15 15 15 15 15 15 14 14 14 13 13 12 11 9 8 8 11 9 13 15 15 13 12 12 13 13 13 13
16 20 21 21 20 18 16 15 14 14 14 13 14 15 15 15 15 14 14 13 13 13 12 12 12 11 11 10 8 7 8 11 8 12 14 14 11 11 11 11 12 12 12
16 19 20 21 20 18 16 14 13 13 13 13 14 15 14 14 14 14 13 12 11 11 11 11 10 9 9 8 6 5 7 9 6 9 13 12 10 10 9 9 10 10 10
15 16 17 18 18 17 16 14 13 13 13 13 14 15 15 14 13 13 12 11 10 10 9 9 8 8 7 5 4 4 6 8 6 5 9 10 8 7 7 7 7 8 8
13 13 14 17 17 16 15 15 14 14 13 13 14 15 15 14 13 12 11 10 9 8 8 7 6 5 4 3 1 3 6 8 5 4 8 9 6 5 4 4 4 5 5
11 11 11 13 15 16 16 14 15 14 13 14 14 15 14 13 13 11 12 10 8 7 7 6 5 4 3 3 4 4 7 9 2 4 8 7 4 2 1 1 1 2 3
10 10 10 9 11 14 14 14 14 12 13 13 14 14 12 11 12 13 13 10 9 8 7 6 6 6 7 8 8 8 8 9 3 2 7 8 4 1 2 2 2 2 1
9 9 9 9 10 11 10 12 11 12 13 13 15 16 12 9 11 12 11 10 9 9 9 9 9 10 10 7 6 9 8 4 5 2 6 8 6 4 4 4 4 4 4
9 8 8 8 8 9 9 8 9 9 9 8 11 12 9 7 6 8 8 11 12 11 11 10 10 10 8 7 7 7 6 6 7 5 7 9 8 7 7 7 7 6 6
8 9 8 8 8 7 6 5 5 7 8 9 9 8 7 6 4 5 5 7 8 8 8 7 7 6 5 5 5 5 6 7 8 7 8 11 11 10 9 9 9 8 8
8 9 8 9 8 7 5 4 4 6 8 9 9 7 7 6 5 4 3 4 5 5 6 6 6 4 3 3 3 5 7 8 7 7 6 10 13 12 11 10 10 10 9
7 8 9 9 8 8 7 6 6 6 8 7 9 10 9 7 6 4 2 3 4 5 5 4 4 2 1 2 3 6 7 7 7 8 8 7 9 12 13 11 10 9 9
7 7 8 8 9 8 7 6 5 5 6 7 9 9 10 9 8 6 3 2 5 5 3 2 1 1 2 3 4 4 4 5 6 8 8 6 6 7 9 11 10 9 9
6 6 7 7 7 7 7 5 5 5 5 6 7 6 7 7 8 6 4 4 5 3 2 2 2 2 3 4 4 4 3 3 5 6 6 6 4 4 4 5 7 8 7
6 5 7 7 7 7 6 5 4 3 3 4 5 5 4 4 5 4 3 4 3 2 2 2 3 3 3 3 4 4 5 6 5 4 4 4 3 2 2 1 1 3 5
6 6 7 7 7 6 5 5 5 4 4 3 3 5 4 3 4 4 2 2 2 2 3 3 3 3 3 2 2 4 5 7 7 5 3 1 1 2 4 3 3 2 2
8 8 7 7 6 6 5 5 4 4 3 3 3 4 4 3 1 1 1 1 1 1 2 2 2 2 2 2 2 2 4 4 3 3 2 2 2 4 5 5 6 6 7
7 8 7 7 6 6 6 4 4 3 3 2 3 3 3 4 3 2 1 1 1 1 2 2 2 2 3 3 4 3 2 3 3 2 1 2 3 3 4 7 9 10 10
6 6 6 6 6 6 6 6 6 5 4 4 4 4 4 4 3 2 0 0 1 1 1 2 2 2 3 4 3 4 4 3 2 2 2 2 3 4 4 6 8 10 11
7 6 5 5 6 5 5 6 6 5 4 4 4 5 4 4 4 3 1 1 0 0 1 1 2 2 2 3 3 2 3 3 4 4 3 1 1 3 4 5 7 9 11
7 6 5 6 5 5 5 5 5 5 5 5 4 4 3 3 3 4 3 2 2 2 1 1 2 2 2 3 2 2 2 2 2 3 4 3 1 1 4 5 6 8 10
Wind_Direction
129 137 140 136 133 128 122 115 110 107 102 97 93 88 82 80 82 85 89 91 92 91 88 86 84 83 82 80 79 77 76 78 79 77 72 66 63 60 57 57 60 54 55
132 138 140 138 135 129 122 116 113 110 106 101 97 91 85 83 85 86 89 92 91 89 88 86 85 84 82 81 80 78 78 78 80 82 79 73 65 62 60 59 58 55 54
131 138 141 138 135 129 123 119 117 114 111 107 102 96 90 86 86 88 89 90 90 89 87 86 85 84 83 82 80 78 73 60 45 44 81 84 69 63 61 59 57 54 52
131 140 142 139 135 130 126 123 122 120 117 113 106 101 95 92 89 90 92 91 91 90 88 86 85 84 84 82 79 74 58 31 18 44 78 76 68 63 59 57 55 53 52
133 140 138 139 136 132 129 127 127 125 122 117 111 106 100 97 94 93 93 94 93 91 89 88 86 85 84 81 76 65 38 13 18 70 81 78 68 63 59 56 54 53 51
131 130 138 139 136 133 132 131 131 128 123 121 117 111 106 102 99 98 98 98 97 95 93 90 88 86 84 79 72 53 23 8 39 77 78 77 67 62 59 56 55 53 52
128 131 140 138 137 136 135 134 133 131 127 124 122 117 111 109 107 106 105 104 103 100 97 93 91 87 83 77 66 38 11 359 59 83 84 79 70 64 61 57 54 54 53
127 133 140 140 139 139 138 137 134 133 132 128 127 122 117 116 116 115 113 111 108 104 100 96 93 90 84 76 61 29 4 359 26 86 93 88 76 68 62 59 55 53 51
128 134 141 143 141 140 140 139 136 132 132 130 128 126 121 123 124 123 121 118 114 109 105 101 96 92 88 79 57 15 349 342 345 85 100 100 89 73 65 61 56 54 52
133 140 146 151 148 146 142 140 137 134 133 132 130 130 131 133 136 136 132 126 123 119 116 112 106 104 102 100 53 324 317 314 301 105 109 112 101 80 64 56 53 52 50
141 146 152 155 156 154 149 146 140 139 139 139 140 146 150 157 156 151 140 138 137 137 137 137 141 155 174 201 224 258 284 287 294 99 117 128 120 99 52 24 25 31 38
154 154 155 156 156 153 148 153 156 157 160 165 162 170 187 182 156 143 143 149 154 161 165 175 190 211 224 223 220 235 259 269 263 168 153 154 156 190 260 264 270 279 298
161 157 154 151 152 148 149 165 166 165 174 190 173 185 194 147 132 142 156 164 177 185 192 199 212 227 232 215 198 226 243 295 306 266 168 168 182 218 250 262 258 255 256
164 161 155 150 149 151 157 165 161 161 176 178 170 184 172 152 159 168 172 179 188 197 199 190 217 225 221 221 224 240 241 231 250 237 185 188 200 222 242 255 260 257 255
168 166 162 153 151 153 154 164 170 163 168 163 164 181 166 153 173 170 181 180 198 196 180 202 232 237 224 238 244 253 266 258 249 238 211 203 210 221 235 247 256 260 258
176 170 164 165 160 157 156 168 183 172 166 157 158 179 175 174 178 165 195 183 209 199 200 213 234 241 242 250 263 268 264 269 268 264 242 218 217 223 231 242 252 258 262
177 177 172 173 170 168 170 181 186 175 165 160 163 180 182 188 174 171 208 191 210 213 219 229 263 278 298 293 277 271 266 267 273 273 265 238 218 222 230 238 248 256 261
175 180 177 174 174 174 174 179 173 173 169 163 166 180 186 188 179 183 202 209 223 215 204 204 255 283 273 267 269 274 272 270 265 270 274 261 231 220 223 231 240 251 261
176 174 170 167 172 173 169 168 172 176 168 162 165 172 182 187 188 187 199 218 223 204 197 214 224 230 253 265 273 281 288 286 274 271 268 269 254 220 205 219 232 242 257
176 178 173 172 174 172 168 170 170 171 161 151 148 158 176 189 191 189 201 226 224 198 214 219 232 239 242 256 280 282 274 267 262 254 250 253 257 212 154 111 202 247 258
177 183 180 177 176 169 165 170 174 178 173 158 148 158 169 185 192 187 198 224 220 211 226 233 234 244 245 248 280 286 272 254 246 238 216 181 114 100 94 79 68 51 13
179 182 180 178 174 169 167 167 162 156 156 158 151 147 151 148 156 182 182 208 204 227 247 253 250 240 238 215 216 269 300 306 284 227 159 129 100 80 79 72 64 53 51
179 179 173 168 166 162 154 141 129 120 123 149 162 154 132 126 109 78 47 20 341 220 242 254 255 234 245 249 219 215 239 264 327 346 63 87 80 70 67 67 65 56 52
170 155 157 157 157 157 156 157 162 166 171 178 165 155 141 138 132 130 113 327 318 274 250 256 262 247 240 251 257 235 227 223 247 294 338 45 66 64 61 65 62 57 51
146 141 146 148 153 155 160 164 167 169 160 141 135 144 150 143 136 129 108 63 0 5 334 318 300 279 253 248 247 249 252 252 229 228 253 258 50 56 61 64 63 56 51
133 137 147 153 154 152 154 154 156 153 141 136 137 145 139 131 123 104 81 54 39 44 22 334 300 290 278 268 266 255 239 236 231 226 238 232 197 98 69 59 60 57 52
Height
1531 1534 1537 1540 1542 1544 1546 1547 1548 1549 1549 1550 1550 1551 1551 1551 1552 1553 1554 1555 1556 1557 1558 1559 1560 1560 1560 1560 1561 1561 1562 1562 1562 1562 1562 1562 1562 1562 1561 1561 1561 1560 1560
1529 1533 1537 1540 1543 1545 1547 1548 1549 1550 1551 1551 1552 1553 1553 1554 1554 1555 1556 1557 1558 1559 1560 1561 1561 1562 1562 1563 1563 1564 1564 1565 1565 1565 1565 1565 1565 1564 1564 1564 1563 1563 1563
1529 1534 1537 1541 1543 1546 1547 1549 1550 1551 1552 1553 1554 1555 1555 1556 1557 1558 1559 1560 1560 1561 1562 1562 1563 1564 1564 1565 1566 1566 1567 1567 1567 1567 1567 1567 1567 1567 1566 1566 1566 1565 1565
1530 1534 1538 1541 1544 1546 1548 1550 1551 1552 1554 1555 1556 1557 1558 1558 1559 1560 1561 1562 1562 1563 1564 1565 1565 1566 1567 1567 1568 1569 1569 1570 1570 1570 1570 1570 1569 1569 1568 1568 1567 1567 1566
1532 1535 1538 1542 1545 1547 1549 1551 1552 1554 1555 1557 1558 1559 1560 1560 1561 1562 1563 1564 1565 1565 1566 1567 1568 1568 1569 1570 1570 1571 1571 1572 1572 1572 1572 1571 1571 1570 1570 1569 1569 1568 1567
1533 1536 1539 1543 1545 1548 1550 1552 1554 1555 1557 1558 1559 1560 1561 1562 1563 1564 1565 1566 1567 1567 1568 1569 1570 1570 1571 1572 1572 1573 1573 1573 1574 1573 1573 1573 1572 1572 1571 1571 1570 1569 1569
1534 1536 1540 1543 1546 1549 1551 1553 1555 1556 1558 1560 1561 1562 1563 1564 1565 1566 1567 1568 1569 1569 1570 1571 1572 1572 1573 1573 1574 1575 1575 1575 1575 1575 1574 1574 1574 1573 1572 1572 1571 1570 1570
1535 1537 1541 1544 1547 1549 1552 1554 1555 1557 1559 1561 1562 1563 1564 1566 1566 1567 1568 1569 1570 1571 1572 1573 1573 1574 1574 1575 1575 1576 1576 1576 1576 1576 1575 1575 1575 1574 1573 1573 1572 1571 1571
1536 1538 1541 1544 1547 1550 1552 1554 1556 1558 1560 1561 1563 1564 1566 1567 1568 1569 1570 1571 1571 1572 1573 1574 1574 1575 1575 1576 1576 1577 1577 1577 1577 1577 1576 1576 1575 1575 1574 1573 1573 1572 1571
1537 1539 1542 1545 1548 1550 1552 1555 1557 1559 1560 1562 1563 1565 1566 1568 1569 1570 1571 1572 1572 1573 1574 1575 1575 1576 1576 1577 1577 1577 1578 1578 1578 1577 1577 1576 1576 1575 1574 1574 1573 1572 1571
1538 1540 1543 1545 1548 1550 1553 1555 1557 1559 1560 1562 1564 1566 1567 1568 1569 1570 1571 1572 1573 1574 1574 1575 1576 1576 1577 1577 1577 1578 1578 1578 1578 1577 1577 1576 1576 1575 1574 1573 1573 1572 1571
1537 1541 1543 1546 1548 1550 1552 1555 1557 1559 1560 1562 1564 1566 1567 1568 1569 1570 1571 1572 1573 1574 1574 1575 1576 1576 1576 1576 1577 1577 1577 1577 1577 1577 1576 1576 1575 1574 1573 1573 1572 1571 1570
1537 1540 1543 1546 1548 1550 1552 1554 1556 1558 1560 1562 1564 1566 1567 1569 1570 1570 1571 1572 1572 1573 1574 1574 1575 1575 1575 1575 1576 1576 1576 1576 1576 1576 1575 1574 1574 1573 1572 1571 1571 1570 1569
1536 1539 1542 1545 1547 1550 1552 1554 1557 1558 1560 1562 1564 1566 1567 1568 1569 1570 1570 1571 1571 1572 1572 1573 1574 1574 1575 1575 1575 1575 1575 1575 1575 1574 1573 1573 1572 1572 1571 1570 1569 1568 1568
1535 1538 1541 1544 1546 1549 1551 1553 1556 1558 1559 1561 1563 1565 1567 1567 1568 1569 1570 1570 1571 1572 1572 1573 1573 1574 1574 1574 1574 1574 1573 1573 1573 1573 1572 1571 1570 1570 1569 1568 1567 1566 1566
1533 1536 1539 1542 1544 1547 1549 1552 1554 1557 1558 1560 1561 1563 1565 1566 1567 1568 1569 1569 1570 1571 1571 1572 1572 1572 1572 1572 1572 1572 1571 1571 1571 1570 1570 1569 1568 1567 1566 1565 1564 1564 1563
1531 1534 1537 1540 1542 1545 1547 1550 1552 1555 1557 1558 1560 1561 1563 1564 1565 1566 1567 1568 1568 1569 1569 1570 1570 1570 1570 1570 1569 1569 1569 1568 1568 1568 1567 1566 1565 1564 1563 1562 1562 1561 1560
1529 1532 1535 1537 1540 1542 1545 1548 1550 1553 1555 1556 1558 1559 1561 1562 1563 1564 1565 1566 1566 1567 1567 1567 1567 1567 1567 1567 1566 1566 1566 1565 1565 1564 1564 1563 1562 1561 1560 1559 1558 1558 1557
1527 1529 1532 1534 1537 1539 1542 1545 1548 1550 1552 1554 1555 1557 1558 1560 1561 1561 1562 1563 1564 1564 1564 1565 1564 1564 1564 1564 1563 1563 1562 1562 1561 1561 1560 1559 1558 1558 1557 1556 1555 1554 1554
1524 1526 1529 1531 1534 1537 1540 1542 1545 1547 1549 1551 1552 1554 1555 1557 1558 1559 1559 1560 1561 1561 1561 1561 1561 1561 1561 1560 1560 1559 1558 1558 1557 1556 1555 1555 1554 1554 1553 1552 1552 1551 1550
1521 1524 1526 1528 1531 1533 1536 1538 1541 1543 1545 1547 1549 1551 1552 1554 1555 1555 1556 1557 1557 1558 1558 1558 1558 1557 1557 1557 1556 1554 1553 1553 1552 1551 1551 1551 1551 1550 1550 1549 1548 1547 1546
1517 1520 1522 1525 1527 1530 1532 1534 1537 1539 1541 1543 1545 1547 1549 1550 1551 1552 1552 1553 1553 1554 1554 1554 1554 1553 1553 1553 1553 1551 1550 1549 1548 1548 1548 1548 1547 1547 1546 1546 1545 1544 1543
1513 1516 1518 1521 1523 1526 1529 1531 1533 1536 1538 1540 1541 1543 1544 1546 1547 1548 1548 1549 1549 1549 1549 1549 1549 1549 1549 1549 1549 1549 1548 1546 1546 1545 1545 1545 1544 1544 1543 1542 1541 1540 1539
1509 1512 1515 1517 1520 1522 1525 1527 1529 1531 1533 1535 1537 1538 1540 1541 1542 1543 1544 1544 1544 1544 1544 1544 1544 1544 1544 1544 1544 1544 1544 1544 1544 1542 1542 1541 1541 1540 1539 1538 1537 1536 1535
1505 1508 1511 1514 1516 1518 1520 1523 1525 1527 1529 1531 1533 1534 1535 1536 1537 1538 1539 1539 1539 1539 1539 1539 1539 1539 1539 1539 1539 1539 1539 1539 1539 1538 1537 1537 1537 1536 1535 1534 1533 1532 1531
1501 1504 1506 1509 1512 1514 1517 1519 1521 1523 1525 1527 1528 1530 1531 1532 1532 1533 1533 1534 1534 1534 1534 1534 1534 1534 1534 1533 1533 1533 1533 1533 1533 1533 1533 1533 1532 1532 1531 1530 1529 1529 1528